一网星座-0623星 (ONEWEB-0623)

导读 | 星芒AI

ONEWE-0623 是 OneWeb 卫星通信网络的一部分,旨在为全球提供高速互联网服务。该卫星属于 OneWeb 的中轨道(MEO)星座计划,支持偏远和农村地区的宽带接入。由阿丽亚娜航天公司发射,采用标准化设计以降低制造和部署成本。该项目由多个国际合作伙伴支持,致力于构建低延迟、高容量的全球通信系统。

基本信息
目录编号:
55164
目录名称:
ONEWEB-0623
国际标识:
2023-004AA
轨道中心:
EARTH
卫星名称:
一网星座-0623星
卫星全名:
一网星座-0623星 (ONEWEB-0623)
卫星状态:
在轨 (已飞行1071 天)
发射日期:
2023-01-10 UTC
国别 :
英国 (GB)
星等 :
--
轨道信息
数据来源 国际轨道数据 AOE轨道数据
星历时间 2025-12-15T12:14:26+0800
22小时前
查看轨道信息
2025-12-15T05:00:00+0800
1天前
查看轨道信息
半长轴 7571.855km 7571.824km
偏心率 0.0001925 0.0001844
轨道倾角 87.911° 87.911°
近地点辐角 123.414° 132.058°
升交点赤经 42.474° 42.532°
平近点角 236.717° 237.869°
近地点 1192.262km 1192.292km
远地点 1195.178km 1195.086km
周期 109.286分钟 109.285分钟
每日圈数 13.176478 13.176561
详细信息
平衡模式:
三轴稳定
覆盖范围:
全球
运营商:
一网卫星公司
运营商所在国:
英国
制造商(研发单位):
一网卫星公司
制造商所在国:
英国
使用方式:
暂无
卫星简介
OneWeb卫星网络由648颗重约125公斤的微型卫星组成,运行在1200公里的轨道上。 每颗卫星都能够提供至少每秒8千兆位的吞吐量,以使用其高吞吐量的Ku频段有效载荷为家庭和移动平台提供互联网接入。该卫星仍在工作。
2D轨道图
3D轨道图
轨道高度分析图
轨道倾角分析图
轨道综合分析图
查看轨道综合分析图